Change the Weather History Date:

Thursday, November 14, 2013

  Actual Average Record
Temperature  
Mean Temperature 41 °F 42 °F  
Max Temperature 51 °F 49 °F 71 °F (1971)
Min Temperature 30 °F 34 °F 10 °F (1986)
Degree Days  
Heating Degree Days 24 23  
Month to date heating degree days 321 290  
Since 1 July heating degree days 820 831  
Cooling Degree Days 0 0  
Month to date cooling degree days 0 0  
Year to date cooling degree days 828 773  
Moisture  
Dew Point 21 °F    
Average Humidity 48    
Maximum Humidity 63    
Minimum Humidity 32    
Precipitation  
Precipitation 0.00 in 0.12 in 1.50 in (1957)
Month to date precipitation 1.18 1.51  
Year to date precipitation 36.57 33.63  
Snow  
Snow 0.00 in 0.20 in 7.10 in (1969)
Month to date snowfall 1.8 1.4  
Since 1 July snowfall 1.8  
Since 1 September snowfall 1.8  
Snow Depth 0.00 in    
Sea Level Pressure  
Sea Level Pressure 30.11 in    
Wind  
Wind Speed 16 mph (SW)    
Max Wind Speed 25 mph    
Max Gust Speed 31 mph    
Visibility 10 miles    
Events      
T = Trace of Precipitation, MM = Missing Value Source: NWS Daily Summary

Daily Weather History Graph

Daily Weather History Graph

Search for Another Location

Airport or City:

Trip Planner

Search our weather history database for the weather conditions in past years. The results will help you decide how hot, cold, wet, or windy it might be!

Date:

Astronomy

Nov. 14, 2013 Rise Set
Actual Time 7:33 AM EST 5:25 PM EST
Civil Twilight 7:03 AM EST 5:55 PM EST
Nautical Twilight 6:30 AM EST 6:28 PM EST
Astronomical Twilight 5:57 AM EST 7:01 PM EST
Moon 3:48 PM EST (11/14) 4:25 AM EST (11/14)
Length of Visible Light 10h 51m
Length of Day
9h 51m
Waxing Gibbous, 91% of the Moon is Illuminated
Nov 14
Waxing Gibbous
Nov 17
Full
Nov 25
Last Quarter
Dec 2
New
Dec 9
First Quarter

Hourly Weather History & Observations

Time (EST) Temp. Windchill Dew Point Humidity Pressure Visibility Wind Dir Wind Speed Gust Speed Precip Events Conditions
12:54 AM 30.9 °F 19.1 °F 18.0 °F 59% 30.24 in 10.0 mi SW 18.4 mph 27.6 mph N/A   Clear
1:54 AM 30.9 °F 19.8 °F 18.0 °F 59% 30.23 in 10.0 mi SW 16.1 mph - N/A   Clear
2:54 AM 30.9 °F 19.1 °F 18.0 °F 59% 30.23 in 10.0 mi SW 18.4 mph - N/A   Clear
3:54 AM 30.9 °F 20.2 °F 18.0 °F 59% 30.22 in 10.0 mi SW 15.0 mph - N/A   Clear
4:54 AM 30.9 °F 20.2 °F 18.0 °F 59% 30.20 in 10.0 mi SSW 15.0 mph - N/A   Clear
5:54 AM 30.9 °F 20.7 °F 18.0 °F 59% 30.18 in 10.0 mi SSW 13.8 mph 21.9 mph N/A   Clear
6:54 AM 30.9 °F 19.8 °F 18.0 °F 59% 30.17 in 10.0 mi SSW 16.1 mph 23.0 mph N/A   Clear
7:54 AM 30.9 °F 19.4 °F 19.0 °F 61% 30.17 in 10.0 mi SSW 17.3 mph 25.3 mph N/A   Clear
8:54 AM 33.1 °F 21.9 °F 19.0 °F 56% 30.16 in 10.0 mi SSW 18.4 mph 24.2 mph N/A   Clear
9:54 AM 36.0 °F 26.7 °F 19.9 °F 52% 30.16 in 10.0 mi SW 15.0 mph 25.3 mph N/A   Clear
10:54 AM - - - N/A% 30.13 in - North - - N/A   Clear
11:54 AM - - - N/A% 30.10 in 10.0 mi SW 17.3 mph 23.0 mph N/A   Clear
12:36 PM 44.6 °F 37.4 °F 23.0 °F 43% 30.08 in 10.0 mi SW 16.1 mph 23.0 mph N/A   Clear
12:54 PM 46.0 °F 38.3 °F 23.0 °F 40% 30.08 in 10.0 mi SW 20.7 mph 27.6 mph N/A   Clear
1:54 PM 48.0 °F - 21.9 °F 36% 30.05 in 10.0 mi SW 23.0 mph 29.9 mph N/A   Clear
2:54 PM 50.0 °F - 23.0 °F 35% 30.04 in 10.0 mi SSW 18.4 mph 27.6 mph N/A   Clear
3:54 PM 50.0 °F - 23.0 °F 35% 30.02 in 10.0 mi SSW 16.1 mph 26.5 mph N/A   Clear
4:54 PM 50.0 °F - 21.9 °F 33% 30.02 in 10.0 mi SSW 16.1 mph 21.9 mph N/A   Clear
5:54 PM 46.9 °F - 21.0 °F 36% 30.03 in 10.0 mi SSW 12.7 mph - N/A   Clear
6:54 PM 45.0 °F 38.9 °F 21.0 °F 39% 30.03 in 10.0 mi SSW 12.7 mph - N/A   Clear
7:54 PM 45.0 °F 37.9 °F 21.0 °F 39% 30.04 in 10.0 mi SW 16.1 mph - N/A   Clear
8:54 PM 43.0 °F 36.8 °F 21.9 °F 43% 30.05 in 10.0 mi SW 11.5 mph - N/A   Clear
9:54 PM 42.1 °F 34.9 °F 23.0 °F 47% 30.05 in 10.0 mi SW 13.8 mph - N/A   Clear
10:54 PM 42.1 °F 34.9 °F 23.0 °F 47% 30.02 in 10.0 mi SSW 13.8 mph - N/A   Clear
11:54 PM 42.1 °F 34.2 °F 23.0 °F 47% 30.02 in 10.0 mi SW 16.1 mph - N/A   Clear